Regional Weather Roundup
Issued by NWS Newport/Morehead, NC

Current Version | Previous Version | Graphics & Text | Print | Product List | Glossary Off
Versions: 1 2 3 4 5 6 7 8 9 10 11 12 13 14 15 16 17 18 19 20 21 22 23 24 25 26 27 28 29 30 31 32 33 34 35 36 37 38 39 40 41 42 43 44 45 46 47 48 49 50

000
ASUS42 KMHX 280625
RWRMHX
WEATHER ROUNDUP FOR EASTERN NORTH CAROLINA
NATIONAL WEATHER SERVICE NEWPORT/MOREHEAD CITY NC
200 AM EDT THU MAY 28 2015

NOTE: "FAIR" INDICATES FEW OR NO CLOUDS BELOW 12,000 FEET
WITH NO SIGNIFICANT WEATHER AND/OR OBSTRUCTIONS TO VISIBILITY

NCZ015>017-031-032-045>047-102-103-280700-
NORTH COAST

CITY           SKY/WX    TMP DP  RH WIND       PRES   REMARKS
EDENTON        PTCLDY    70  65  85 SW6       30.22S
ELIZABETH CITY CLEAR     70  65  84 S8        30.21F
KITTY HAWK     CLEAR     71  64  78 S3        30.22F
MANTEO         CLEAR     72  64  78 SW10      30.23F

$$

NCZ045>047-081-094-103-104-280700-
CENTRAL COAST

CITY           SKY/WX    TMP DP  RH WIND       PRES   REMARKS
FRISCO         CLEAR     71  60  68 S8        30.24F
SWANQUARTER      N/A     72 N/A N/A S8        30.21S

$$

NCZ095-097-098-100-101-280700-
SOUTHERN COAST

CITY           SKY/WX    TMP DP  RH WIND       PRES   REMARKS
BEAUFORT       PTCLDY    70  62  76 S5        30.23F
CEDAR ISLAND     N/A     68 N/A N/A S2        30.27S
JACKSONVILLE   PTCLDY    68  64  87 CALM      30.22F
PINEY ISLAND   CLEAR    N/A N/A N/A S5        30.23F
WILMINGTON     PTCLDY    69  64  84 CALM      30.23S


$$

NCZ011>013-027>030-043-044-078>080-089-090>093-098-280700-
COASTAL PLAIN

CITY           SKY/WX    TMP DP  RH WIND       PRES   REMARKS
AHOSKIE        CLOUDY    70  66  85 S5        30.21F
CLINTON        MOCLDY    70  69  98 CALM      30.23S
ELIZABETHTOWN  MOCLDY    69  68  98 SE3       30.22F
GOLDSBORO      CLOUDY    71  67  88 S1        30.20F
GREENVILLE     PTCLDY    70  68  94 SW8       30.23S
HAVELOCK       CLEAR     64  61  90 CALM      30.24F
KENANSVILLE    CLOUDY    69  66  92 CALM      30.24S
KINSTON        PTCLDY    70  66  88 S5        30.23F
NEW BERN       PTCLDY    66  63  90 CALM      30.24F
RICHLANDS      PTCLDY    66  63  88 CALM      30.23S
ROCKY MOUNT    PTCLDY    70  68  93 S5        30.22F
WASHINGTON     PTCLDY    69  65  85 S6        30.22F
WHITEVILLE     MOCLDY    67  65  93 CALM      30.22F

$$

AMZ130-135-150-152-154-156-158-170-250-252-270-ANZ085-086-088-633-658-670-280700-
MARINE OBSERVATIONS

STATION/POSITION TIME  TEMP    WIND        PRES    WAVE   SWELL
                       AIR SEA DIR/SP/G            HT/PER HT/PER
                 (UTC) (F)     (DEG/KT/KT) (MB)    (FT/S) (FT/S)
CHESAPEAKE LIGHT 0600   66     200/ 19/ 20 1023.1
64 E VA BEACH    0550   66 64  170/  8/  8 1023.3    3/ 7   3/ 7
DUCK             0600   72 55  190/ 13/ 16 1022.2
2 E DUCK         0511      58                N/A     2/ 7
OREGON INLET     0600   72 77  180/  9/ 11 1023.8
13E OREGON INLT  0600      69                N/A     3/ 7
HATTERAS CG      0600   72 75  180/  4/  6 1023.5
DIAMOND BUOY     0550   74 77  180/ 10/ 12 1024.1    3/ 7   3/ 7
CAPE LOOKOUT     0600   72     190/  5/  6 1023.6
BEAUFORT LAB     0600   74 75  200/  7/  9 1022.9
27 SE WRIGHTSVLE 0600      76  210/  6/  8   N/A
5 SE WRIGHTSVLE  0508   75 77  180/  8/ 12 1023.5
225 S CAPE HAT   0550   73 74   90/ 14/ 16 1023.3    5/ 8   3/ 8
41 SE CHARLESTON 0550   76 78  100/  6/  8 1022.2    3/ 7   3/ 7

$$



USA.gov is the U.S. government's official web portal to all federal, state and local government web resources and services.